QPF
0.00 0.00 0.00 0.00 0.00 0.00 0.00 0.00 0.00 0.00 0.00 0.00 0.00 0.00 0.00 0.00 0.00 0.00 0.00 0.00 0.00 0.00 0.00 0.00 0.00 0.00 0.00 0.00 0.00 0.00 0.00 0.00 0.00 0.00 0.00 0.00 0.00 0.00 0.00 0.00 0.00 0.00 0.00 0.00 0.00 0.00 0.00 0.00 0.00
0.00 0.00 0.00 0.00 0.00 0.00 0.00 0.00 0.00 0.00 0.00 0.00 0.00 0.00 0.00 0.00 0.00 0.00 0.00 0.00 0.00 0.00 0.00 0.00 0.00 0.00 0.00 0.00 0.00 0.00 0.00 0.00 0.00 0.00 0.00 0.00 0.00 0.00 0.00 0.00 0.00 0.00 0.00 0.00 0.00 0.00 0.00 0.00 0.00
0.00 0.00 0.00 0.00 0.00 0.00 0.00 0.00 0.00 0.00 0.00 0.00 0.00 0.00 0.00 0.00 0.00 0.00 0.00 0.00 0.00 0.00 0.00 0.00 0.00 0.00 0.00 0.00 0.00 0.00 0.00 0.00 0.00 0.00 0.00 0.00 0.00 0.00 0.00 0.00 0.00 0.00 0.00 0.00 0.00 0.00 0.00 0.00 0.00
0.00 0.00 0.00 0.00 0.00 0.00 0.00 0.00 0.00 0.00 0.00 0.00 0.00 0.00 0.00 0.00 0.00 0.00 0.00 0.00 0.00 0.00 0.00 0.00 0.00 0.00 0.00 0.00 0.00 0.00 0.00 0.00 0.00 0.00 0.00 0.00 0.00 0.00 0.00 0.00 0.00 0.00 0.00 0.00 0.00 0.00 0.00 0.00 0.00
0.00 0.00 0.00 0.00 0.00 0.00 0.00 0.00 0.00 0.00 0.00 0.00 0.00 0.00 0.00 0.00 0.00 0.00 0.00 0.00 0.00 0.00 0.00 0.00 0.00 0.00 0.00 0.00 0.00 0.00 0.00 0.00 0.00 0.00 0.00 0.00 0.00 0.00 0.00 0.00 0.00 0.00 0.00 0.00 0.00 0.00 0.00 0.00 0.00
0.00 0.00 0.00 0.00 0.00 0.00 0.00 0.00 0.00 0.00 0.00 0.00 0.00 0.00 0.00 0.00 0.00 0.00 0.00 0.00 0.00 0.00 0.00 0.00 0.00 0.00 0.00 0.00 0.00 0.00 0.00 0.00 0.00 0.00 0.00 0.00 0.00 0.00 0.00 0.00 0.00 0.00 0.00 0.00 0.00 0.00 0.00 0.00 0.00
0.00 0.00 0.00 0.00 0.00 0.00 0.00 0.00 0.00 0.00 0.00 0.00 0.00 0.00 0.00 0.00 0.00 0.00 0.00 0.00 0.00 0.00 0.00 0.00 0.00 0.00 0.00 0.00 0.00 0.00 0.00 0.00 0.00 0.00 0.00 0.00 0.00 0.00 0.00 0.00 0.00 0.00 0.00 0.00 0.00 0.00 0.00 0.00 0.00
0.00 0.00 0.00 0.00 0.00 0.00 0.00 0.00 0.00 0.00 0.00 0.00 0.00 0.00 0.00 0.00 0.00 0.00 0.00 0.00 0.00 0.00 0.00 0.00 0.00 0.00 0.00 0.00 0.00 0.00 0.00 0.00 0.00 0.00 0.00 0.00 0.00 0.00 0.00 0.00 0.00 0.00 0.00 0.00 0.00 0.00 0.00 0.00 0.00
0.00 0.00 0.00 0.00 0.00 0.00 0.00 0.00 0.00 0.00 0.00 0.00 0.00 0.00 0.00 0.00 0.00 0.00 0.00 0.00 0.00 0.00 0.00 0.00 0.00 0.00 0.00 0.00 0.00 0.00 0.00 0.00 0.00 0.00 0.00 0.00 0.00 0.00 0.00 0.00 0.00 0.00 0.00 0.00 0.00 0.00 0.00 0.00 0.00
0.00 0.00 0.00 0.00 0.00 0.00 0.00 0.00 0.00 0.00 0.00 0.00 0.00 0.00 0.00 0.00 0.00 0.00 0.00 0.00 0.00 0.00 0.00 0.00 0.00 0.00 0.00 0.00 0.00 0.00 0.00 0.00 0.00 0.00 0.00 0.00 0.00 0.00 0.00 0.00 0.00 0.00 0.00 0.00 0.00 0.00 0.00 0.00 0.00
0.00 0.00 0.00 0.00 0.00 0.00 0.00 0.00 0.00 0.00 0.00 0.00 0.00 0.00 0.00 0.00 0.00 0.00 0.00 0.00 0.00 0.00 0.00 0.00 0.00 0.00 0.00 0.00 0.00 0.00 0.00 0.00 0.00 0.00 0.00 0.00 0.00 0.00 0.00 0.00 0.00 0.00 0.00 0.00 0.00 0.00 0.00 0.00 0.00
0.00 0.00 0.00 0.00 0.00 0.00 0.00 0.00 0.00 0.00 0.00 0.00 0.00 0.00 0.00 0.00 0.00 0.00 0.00 0.00 0.00 0.00 0.00 0.00 0.00 0.00 0.00 0.00 0.00 0.00 0.00 0.00 0.00 0.00 0.00 0.00 0.00 0.00 0.00 0.00 0.00 0.00 0.00 0.00 0.00 0.00 0.00 0.00 0.00
0.00 0.00 0.00 0.00 0.00 0.00 0.00 0.00 0.00 0.00 0.00 0.00 0.00 0.00 0.00 0.00 0.01 0.00 0.00 0.00 0.00 0.00 0.00 0.00 0.00 0.00 0.00 0.00 0.00 0.00 0.00 0.00 0.00 0.00 0.00 0.00 0.00 0.00 0.00 0.00 0.00 0.00 0.00 0.00 0.00 0.00 0.00 0.00 0.00
0.00 0.00 0.00 0.00 0.00 0.00 0.00 0.00 0.00 0.00 0.00 0.00 0.00 0.00 0.00 0.00 0.00 0.00 0.00 0.00 0.00 0.00 0.00 0.00 0.00 0.00 0.00 0.00 0.00 0.00 0.00 0.00 0.00 0.00 0.00 0.00 0.00 0.00 0.00 0.00 0.00 0.00 0.00 0.00 0.00 0.00 0.00 0.00 0.00
0.00 0.00 0.00 0.00 0.00 0.00 0.00 0.00 0.00 0.00 0.00 0.00 0.00 0.00 0.00 0.00 0.00 0.00 0.00 0.00 0.00 0.00 0.00 0.00 0.00 0.00 0.00 0.00 0.00 0.00 0.00 0.00 0.00 0.00 0.00 0.00 0.00 0.00 0.00 0.00 0.00 0.00 0.00 0.00 0.00 0.00 0.00 0.00 0.00
0.00 0.00 0.00 0.00 0.00 0.00 0.00 0.00 0.00 0.00 0.00 0.00 0.00 0.00 0.00 0.00 0.00 0.00 0.00 0.00 0.00 0.00 0.00 0.00 0.00 0.00 0.00 0.00 0.00 0.00 0.00 0.00 0.00 0.00 0.00 0.00 0.00 0.00 0.00 0.00 0.00 0.00 0.00 0.00 0.00 0.00 0.00 0.00 0.00
0.00 0.00 0.00 0.00 0.00 0.00 0.00 0.00 0.00 0.00 0.00 0.00 0.00 0.00 0.00 0.00 0.00 0.00 0.00 0.00 0.00 0.00 0.00 0.00 0.00 0.00 0.00 0.00 0.00 0.00 0.00 0.00 0.00 0.00 0.00 0.00 0.00 0.00 0.00 0.00 0.00 0.00 0.00 0.00 0.00 0.00 0.00 0.00 0.00
0.00 0.00 0.00 0.00 0.00 0.00 0.00 0.00 0.00 0.00 0.00 0.00 0.00 0.00 0.00 0.00 0.00 0.00 0.00 0.00 0.00 0.00 0.00 0.00 0.00 0.00 0.00 0.00 0.00 0.00 0.00 0.00 0.00 0.00 0.00 0.00 0.00 0.00 0.00 0.00 0.00 0.00 0.00 0.00 0.00 0.00 0.00 0.00 0.00
0.00 0.00 0.00 0.00 0.00 0.00 0.00 0.00 0.00 0.00 0.00 0.00 0.00 0.00 0.00 0.00 0.00 0.00 0.00 0.00 0.00 0.00 0.00 0.00 0.00 0.00 0.00 0.00 0.00 0.00 0.00 0.00 0.00 0.00 0.00 0.00 0.00 0.00 0.00 0.00 0.00 0.00 0.00 0.00 0.00 0.00 0.00 0.00 0.00
0.00 0.00 0.00 0.00 0.00 0.00 0.00 0.00 0.00 0.00 0.00 0.00 0.00 0.00 0.00 0.00 0.00 0.00 0.00 0.00 0.00 0.00 0.00 0.00 0.00 0.00 0.00 0.00 0.00 0.00 0.00 0.00 0.00 0.00 0.00 0.00 0.00 0.00 0.00 0.00 0.00 0.00 0.00 0.00 0.00 0.00 0.00 0.00 0.01
0.00 0.00 0.00 0.00 0.00 0.00 0.00 0.00 0.00 0.00 0.00 0.00 0.00 0.00 0.00 0.00 0.00 0.00 0.00 0.00 0.00 0.00 0.00 0.00 0.00 0.00 0.00 0.00 0.00 0.00 0.00 0.00 0.00 0.00 0.00 0.00 0.00 0.00 0.00 0.00 0.00 0.00 0.00 0.00 0.00 0.00 0.00 0.01 0.04
0.00 0.00 0.00 0.00 0.00 0.00 0.00 0.00 0.00 0.00 0.00 0.00 0.00 0.00 0.00 0.00 0.00 0.00 0.00 0.00 0.00 0.00 0.00 0.00 0.00 0.00 0.00 0.00 0.00 0.00 0.00 0.00 0.00 0.00 0.00 0.00 0.00 0.00 0.00 0.00 0.00 0.00 0.00 0.00 0.00 0.00 0.01 0.03 0.07
0.00 0.00 0.00 0.00 0.00 0.00 0.00 0.00 0.00 0.00 0.00 0.00 0.00 0.00 0.00 0.00 0.00 0.00 0.00 0.00 0.00 0.00 0.00 0.00 0.00 0.00 0.00 0.00 0.00 0.00 0.00 0.00 0.00 0.00 0.00 0.00 0.00 0.00 0.00 0.00 0.00 0.00 0.00 0.00 0.00 0.02 0.06 0.07 0.07
0.00 0.00 0.00 0.00 0.00 0.00 0.00 0.00 0.00 0.00 0.00 0.00 0.00 0.00 0.00 0.00 0.00 0.00 0.00 0.00 0.00 0.00 0.00 0.00 0.00 0.00 0.00 0.00 0.00 0.00 0.00 0.00 0.00 0.00 0.00 0.00 0.00 0.00 0.00 0.00 0.00 0.00 0.00 0.02 0.04 0.05 0.06 0.05 0.04
0.00 0.00 0.00 0.00 0.00 0.00 0.00 0.00 0.00 0.00 0.00 0.00 0.00 0.00 0.00 0.00 0.00 0.00 0.00 0.00 0.00 0.00 0.00 0.00 0.00 0.00 0.00 0.00 0.00 0.00 0.00 0.00 0.00 0.00 0.00 0.00 0.00 0.00 0.00 0.00 0.00 0.00 0.02 0.04 0.04 0.04 0.03 0.02 0.02
0.00 0.01 0.00 0.00 0.00 0.00 0.00 0.00 0.00 0.00 0.00 0.00 0.00 0.00 0.00 0.00 0.00 0.00 0.00 0.00 0.00 0.00 0.00 0.00 0.00 0.00 0.00 0.00 0.00 0.00 0.00 0.00 0.00 0.00 0.00 0.00 0.00 0.00 0.00 0.01 0.01 0.02 0.02 0.02 0.03 0.02 0.02 0.02 0.01
0.00 0.00 0.00 0.03 0.01 0.01 0.00 0.00 0.00 0.00 0.00 0.00 0.00 0.00 0.00 0.00 0.00 0.00 0.00 0.00 0.00 0.00 0.00 0.00 0.00 0.00 0.00 0.00 0.00 0.00 0.00 0.00 0.00 0.00 0.00 0.00 0.01 0.00 0.01 0.02 0.02 0.01 0.00 0.01 0.02 0.03 0.02 0.02 0.02
0.00 0.00 0.03 0.06 0.04 0.02 0.00 0.00 0.00 0.00 0.00 0.00 0.00 0.00 0.00 0.00 0.00 0.00 0.00 0.00 0.00 0.00 0.00 0.00 0.00 0.00 0.00 0.00 0.00 0.00 0.00 0.00 0.00 0.01 0.01 0.00 0.01 0.01 0.01 0.01 0.01 0.00 0.00 0.01 0.02 0.02 0.02 0.02 0.05
0.01 0.01 0.02 0.04 0.03 0.02 0.01 0.00 0.00 0.00 0.00 0.00 0.00 0.00 0.00 0.00 0.00 0.00 0.00 0.00 0.00 0.00 0.00 0.00 0.00 0.00 0.00 0.00 0.00 0.01 0.01 0.01 0.01 0.01 0.00 0.00 0.00 0.01 0.00 0.00 0.00 0.00 0.00 0.00 0.01 0.02 0.05 0.08 0.08
0.00 0.00 0.01 0.02 0.03 0.02 0.02 0.00 0.00 0.00 0.00 0.00 0.00 0.00 0.00 0.00 0.00 0.00 0.00 0.00 0.00 0.00 0.00 0.00 0.00 0.00 0.00 0.01 0.01 0.02 0.01 0.01 0.00 0.00 0.00 0.00 0.00 0.00 0.00 0.00 0.00 0.00 0.00 0.01 0.04 0.07 0.08 0.09 0.10
MSLP
1009.14 1008.69 1007.90 1006.39 1005.78 1003.51 1001.24 999.40 997.52 995.36 994.23 994.14 994.67 995.23 995.59 996.35 997.61 997.70 997.98 998.99 1000.77 1002.64 1003.78 1005.01 1005.78 1006.51 1007.24 1007.91 1008.44 1008.94 1009.24 1009.62 1010.04 1010.25 1010.56 1010.99 1011.26 1011.39 1011.91 1012.16 1012.47 1012.62 1012.70 1012.83 1013.09 1013.31 1013.25 1013.46 1013.60
1008.36 1007.88 1007.13 1005.78 1004.46 1002.07 999.76 998.13 996.33 994.86 994.10 994.51 995.45 996.08 996.34 996.78 997.27 998.57 998.66 999.51 1001.14 1002.69 1003.73 1004.87 1005.77 1006.27 1007.00 1007.83 1008.67 1009.13 1009.48 1009.84 1010.08 1010.32 1010.56 1011.00 1011.45 1011.57 1012.00 1012.29 1012.52 1012.74 1012.93 1012.97 1013.13 1013.35 1013.42 1013.56 1013.71
1008.69 1007.36 1006.36 1004.86 1003.30 1001.29 998.85 996.20 995.18 994.35 994.64 994.99 995.76 996.53 996.57 996.77 997.42 998.36 999.14 999.90 1001.39 1002.89 1003.72 1004.60 1005.65 1006.41 1006.72 1007.40 1008.30 1008.88 1009.52 1009.79 1010.20 1010.49 1010.73 1011.10 1011.46 1011.76 1012.07 1012.39 1012.68 1012.73 1012.94 1013.14 1013.28 1013.45 1013.55 1013.72 1013.75
1007.42 1006.59 1006.08 1004.04 1002.08 1000.26 998.68 996.79 995.31 994.34 994.95 995.62 995.87 996.14 996.41 996.90 997.25 998.28 999.06 1000.07 1001.45 1002.73 1003.67 1004.61 1005.44 1006.33 1006.90 1007.54 1008.08 1008.83 1009.43 1009.71 1010.09 1010.59 1010.74 1011.03 1011.42 1011.71 1012.03 1012.29 1012.51 1012.68 1012.95 1013.13 1013.28 1013.55 1013.54 1013.72 1013.76
1007.59 1006.24 1004.83 1003.38 1001.77 1000.20 998.33 996.85 995.82 995.11 994.94 995.58 995.87 995.92 996.42 996.92 997.60 998.47 999.12 1000.23 1001.06 1002.11 1003.48 1004.73 1005.63 1006.23 1006.95 1007.36 1007.96 1008.63 1009.16 1009.75 1009.95 1010.28 1010.70 1010.98 1011.41 1011.82 1011.92 1012.23 1012.39 1012.59 1012.85 1012.98 1013.20 1013.48 1013.69 1013.69 1013.71
1006.79 1006.07 1004.80 1002.86 1001.17 999.70 998.22 997.23 996.21 995.70 995.88 995.69 995.61 995.96 996.09 996.63 998.04 998.90 999.13 1000.06 1000.82 1001.76 1002.96 1004.32 1005.44 1006.24 1006.86 1007.30 1007.77 1008.46 1009.01 1009.52 1009.90 1010.26 1010.69 1010.89 1011.21 1011.46 1011.75 1012.04 1012.16 1012.34 1012.75 1012.90 1013.17 1013.27 1013.49 1013.59 1013.56
1005.92 1005.34 1004.12 1002.54 1001.24 999.84 998.12 996.83 996.35 996.03 996.18 996.22 996.14 995.77 996.05 996.36 997.40 998.46 999.22 999.58 1000.20 1001.47 1002.75 1004.21 1005.13 1006.07 1006.83 1007.30 1007.75 1008.24 1008.77 1009.24 1009.64 1010.05 1010.49 1010.78 1011.11 1011.26 1011.46 1011.78 1011.96 1012.09 1012.43 1012.73 1013.06 1013.07 1013.14 1013.33 1013.54
1005.62 1005.31 1003.91 1002.78 1001.42 999.38 998.30 997.32 996.72 996.52 996.23 996.09 995.83 995.68 996.06 996.46 997.15 997.71 998.50 998.91 999.55 1000.60 1002.14 1003.76 1004.85 1005.60 1006.33 1007.16 1007.78 1008.13 1008.60 1009.10 1009.32 1009.79 1010.13 1010.59 1010.89 1011.09 1011.24 1011.58 1011.86 1012.01 1012.16 1012.45 1012.71 1012.85 1013.01 1013.18 1013.28
1005.52 1004.52 1002.99 1002.12 1001.05 999.71 998.68 997.77 996.84 996.57 996.58 996.35 995.84 995.70 996.26 995.80 996.44 997.58 998.20 998.19 998.59 999.47 1000.85 1002.58 1004.13 1005.21 1005.82 1006.37 1007.23 1007.99 1008.47 1008.81 1009.20 1009.46 1009.75 1010.20 1010.45 1010.79 1011.03 1011.32 1011.43 1011.77 1011.94 1012.20 1012.40 1012.59 1012.87 1013.05 1013.15
1005.52 1003.78 1001.99 1001.43 1000.33 999.42 998.66 998.18 997.48 997.09 996.74 996.31 995.91 995.85 996.46 996.58 997.33 997.51 997.85 997.71 997.85 998.83 1000.13 1001.45 1003.17 1004.28 1005.18 1005.43 1006.19 1007.36 1007.86 1008.23 1008.52 1008.81 1009.26 1009.80 1010.07 1010.16 1010.31 1010.64 1011.11 1011.40 1011.78 1012.11 1012.32 1012.42 1012.66 1012.91 1012.86
1004.53 1002.27 1002.11 1000.93 1000.16 999.63 998.88 998.03 997.77 997.54 997.02 996.42 996.08 996.20 996.63 996.93 997.36 997.19 997.44 997.56 997.50 998.18 999.16 1000.51 1002.50 1003.74 1004.32 1004.79 1005.45 1006.27 1006.83 1007.44 1007.87 1008.20 1008.63 1009.19 1009.50 1009.56 1009.61 1009.91 1010.42 1011.00 1011.40 1011.67 1012.05 1012.26 1012.36 1012.39 1012.47
1003.36 1002.22 1001.96 1001.02 1000.44 999.93 998.98 998.48 997.81 998.06 997.60 996.94 996.43 996.27 996.46 996.90 997.12 996.94 996.88 997.01 997.32 997.60 999.13 1001.80 1003.96 1002.79 1003.55 1004.01 1004.62 1005.42 1005.97 1006.62 1007.20 1007.57 1008.05 1008.53 1009.16 1009.09 1009.10 1009.30 1009.62 1010.30 1010.60 1011.05 1011.27 1011.55 1011.69 1011.80 1011.71
1002.26 1001.62 1001.30 1000.75 1000.33 1000.11 999.72 998.84 998.38 998.33 998.34 997.71 997.11 996.22 996.19 996.92 997.12 996.98 996.51 996.32 997.68 998.47 999.81 1000.96 1002.45 1002.60 1002.86 1003.26 1003.83 1004.25 1004.91 1005.41 1005.89 1006.36 1006.97 1007.54 1008.03 1008.28 1008.61 1008.63 1008.85 1009.39 1009.79 1010.27 1010.71 1010.79 1010.94 1011.20 1011.16
1002.76 1001.92 1000.96 1000.22 999.68 999.44 999.40 998.88 998.87 997.71 998.35 998.29 997.69 996.79 996.78 998.06 997.68 997.42 997.44 998.01 998.23 998.81 999.34 999.85 1001.09 1001.75 1002.46 1003.10 1003.61 1003.93 1004.07 1004.32 1004.89 1005.32 1005.67 1006.41 1006.85 1007.33 1007.76 1008.21 1008.36 1008.47 1008.78 1009.05 1009.79 1009.86 1010.01 1010.30 1010.46
1003.33 1002.23 1001.15 999.92 999.54 999.09 999.43 998.58 997.64 997.97 998.28 998.17 997.82 997.21 997.18 997.47 997.66 997.64 997.75 998.17 998.31 998.82 999.34 999.68 1000.25 1001.16 1001.86 1002.59 1003.29 1003.74 1003.88 1004.00 1004.06 1004.40 1004.51 1005.27 1005.78 1006.41 1006.99 1007.39 1007.81 1007.90 1008.02 1008.49 1008.88 1009.19 1009.25 1009.40 1009.56
1003.71 1002.54 1000.70 999.42 1000.08 998.96 999.66 997.23 997.21 997.81 997.87 997.88 998.07 997.66 997.01 996.80 996.70 996.94 997.38 998.05 998.42 998.81 999.08 999.54 999.92 1000.92 1001.67 1002.29 1002.88 1003.29 1003.61 1003.57 1003.58 1003.68 1003.74 1004.13 1004.87 1005.43 1006.12 1006.57 1007.01 1007.38 1007.67 1007.98 1008.22 1008.42 1008.72 1009.00 1009.21
1003.00 1001.82 1000.86 999.51 999.01 998.75 998.80 997.22 996.82 997.45 997.43 997.39 997.68 997.78 997.23 996.67 996.50 996.39 996.97 997.47 997.92 998.35 998.77 999.47 999.97 1000.66 1001.59 1002.03 1002.38 1002.73 1002.99 1003.04 1002.92 1002.85 1002.97 1003.32 1004.08 1004.67 1005.43 1005.94 1006.43 1006.96 1007.23 1007.56 1007.66 1007.96 1008.42 1008.87 1009.15
1002.09 1000.98 1000.01 998.99 998.73 998.54 997.68 996.75 996.06 996.49 996.85 996.58 996.74 996.97 997.03 996.47 996.27 996.06 996.32 996.57 997.17 997.76 998.41 999.21 999.85 1000.43 1001.08 1001.77 1002.06 1002.14 1002.26 1002.34 1002.30 1002.24 1002.30 1002.59 1003.30 1004.07 1004.84 1005.34 1005.91 1006.33 1006.77 1007.07 1007.30 1007.72 1008.11 1008.51 1008.93
1002.07 1001.41 1000.30 999.48 998.90 998.60 997.66 996.40 995.14 995.27 995.53 995.64 995.83 996.10 996.17 996.06 996.06 995.61 995.85 995.96 996.42 997.00 997.80 998.51 999.37 1000.12 1000.78 1001.40 1001.71 1001.76 1001.71 1001.74 1001.55 1001.59 1001.70 1002.08 1002.67 1003.38 1004.34 1005.02 1005.42 1005.96 1006.28 1006.65 1006.99 1007.49 1008.02 1008.45 1008.75
1002.67 1002.12 1001.16 1000.72 1000.40 999.98 998.51 997.13 995.76 995.03 994.46 994.55 994.70 995.03 995.37 995.39 995.16 995.28 995.41 995.34 995.79 996.42 997.37 998.09 998.77 999.41 1000.03 1000.76 1001.07 1001.13 1001.07 1000.68 1000.45 1000.71 1001.15 1001.70 1002.33 1003.09 1003.85 1004.53 1005.03 1005.53 1005.97 1006.25 1006.61 1007.12 1007.80 1008.28 1008.48
1002.59 1002.29 1001.81 1001.39 1001.13 1000.81 999.57 998.00 996.65 995.40 994.90 994.52 994.35 994.09 994.13 994.61 994.92 995.06 994.78 994.86 995.34 996.04 996.89 997.53 998.27 998.83 999.17 999.96 1000.30 1000.56 1000.72 1000.22 1000.03 1000.17 1000.85 1001.37 1002.15 1002.95 1003.65 1004.30 1004.81 1005.10 1005.59 1005.90 1006.38 1006.93 1007.45 1008.15 1008.35
1002.55 1002.55 1002.00 1001.61 1001.36 1000.63 1000.21 997.96 997.27 995.95 994.97 994.71 994.38 993.87 993.55 993.80 994.30 994.52 994.70 994.68 994.76 995.36 996.04 996.73 997.48 998.01 998.49 999.11 999.55 999.76 1000.02 999.97 999.70 999.78 1000.46 1001.29 1002.06 1002.75 1003.49 1004.07 1004.60 1004.77 1005.15 1005.55 1006.04 1006.65 1007.22 1007.88 1008.27
1002.63 1002.60 1002.33 1002.08 1001.55 1001.07 1000.41 999.33 996.34 996.81 994.84 994.37 993.65 993.41 993.09 993.25 993.58 993.89 994.12 994.47 994.56 994.95 995.47 995.98 996.52 997.16 997.68 998.17 998.80 999.12 999.48 999.39 999.39 999.65 1000.45 1001.16 1002.07 1002.70 1003.37 1003.85 1004.36 1004.78 1004.99 1005.38 1005.73 1006.30 1006.99 1007.45 1008.01
1004.16 1003.67 1002.94 1002.38 1001.84 1000.60 1000.06 999.44 996.82 996.26 995.28 994.32 993.29 992.53 992.31 992.31 992.51 992.73 993.11 993.64 993.97 994.35 994.70 995.11 995.69 996.18 996.69 997.31 997.95 998.55 998.90 999.06 999.14 999.56 1000.60 1001.61 1002.39 1003.03 1003.45 1003.97 1004.32 1004.64 1004.89 1005.12 1005.52 1006.16 1006.81 1007.39 1007.79
1004.21 1004.10 1003.67 1002.56 1001.57 999.92 999.49 998.53 996.93 995.78 995.19 994.24 993.24 992.37 991.72 991.46 991.29 991.51 991.88 992.43 993.07 993.55 993.82 994.35 994.62 995.28 995.90 996.76 997.29 998.07 998.45 998.67 998.94 999.54 1000.56 1001.80 1002.48 1003.24 1003.64 1003.96 1004.23 1004.44 1004.75 1005.03 1005.51 1006.18 1006.71 1007.15 1007.48
1004.18 1006.49 1005.46 1003.43 1002.06 1000.26 999.08 997.77 996.66 996.02 995.37 994.28 993.39 992.63 991.72 991.25 990.69 990.68 990.85 991.21 991.71 992.12 992.64 993.21 993.75 994.62 995.45 996.23 996.86 997.45 998.08 998.37 998.96 999.48 1000.46 1001.50 1002.32 1002.93 1003.24 1003.69 1003.91 1004.19 1004.61 1005.10 1005.57 1006.16 1006.52 1006.81 1007.22
1003.91 1003.94 1005.02 1004.52 1003.40 1002.33 1000.08 998.39 996.99 996.33 995.50 994.74 993.47 992.59 991.46 991.04 990.65 990.26 990.48 990.98 991.26 991.34 991.70 992.50 993.31 994.16 995.03 995.69 996.45 997.01 997.61 998.00 998.68 999.37 1000.36 1001.13 1001.70 1002.28 1002.88 1003.26 1003.57 1004.03 1004.36 1004.90 1005.45 1005.88 1006.35 1006.63 1006.97
1004.40 1003.68 1003.44 1004.51 1004.47 1002.29 1000.44 998.87 997.39 996.57 995.87 995.17 993.93 992.47 991.39 990.41 990.05 990.04 990.22 990.37 990.57 990.94 991.39 992.14 992.88 993.75 994.63 995.42 996.19 996.74 997.22 997.65 998.32 999.04 1000.06 1000.66 1001.26 1001.90 1002.54 1002.98 1003.47 1003.83 1004.21 1004.85 1005.43 1005.84 1006.06 1006.52 1006.98
1003.30 1003.31 1004.21 1005.34 1005.18 1003.38 1000.92 998.83 998.14 999.19 999.81 999.01 995.87 993.00 991.21 990.86 990.36 990.25 990.34 990.27 990.36 990.80 991.61 992.18 992.88 993.62 994.56 995.31 996.07 996.70 997.33 997.75 998.39 999.20 999.84 1000.49 1001.17 1001.87 1002.44 1002.93 1003.32 1003.76 1004.29 1004.76 1005.27 1005.56 1005.99 1006.53 1006.91
1003.01 1003.12 1003.98 1004.02 1004.20 1003.10 1001.37 999.11 999.98 1001.83 1002.06 1001.62 999.29 994.46 992.82 991.13 990.79 990.69 990.73 991.12 990.53 991.10 991.67 992.42 993.12 993.87 994.72 995.42 996.22 996.97 997.54 998.16 998.79 999.45 1000.17 1000.65 1001.36 1001.85 1002.32 1002.78 1003.30 1003.73 1004.09 1004.54 1005.11 1005.63 1005.72 1006.25 1006.66
Thickness
5772 5778 5788 5790 5760 5778 5781 5805 5843 5854 5872 5895 5894 5876 5871 5871 5836 5822 5893 5891 5885 5869 5861 5848 5841 5834 5827 5821 5815 5809 5806 5801 5795 5792 5787 5781 5778 5777 5770 5767 5762 5760 5758 5755 5750 5747 5747 5743 5741
5773 5778 5780 5774 5754 5759 5789 5829 5837 5864 5886 5889 5876 5871 5867 5854 5874 5867 5874 5889 5881 5869 5859 5847 5839 5834 5827 5819 5809 5805 5801 5796 5793 5789 5785 5780 5774 5773 5767 5764 5760 5756 5752 5750 5748 5743 5741 5739 5736
5766 5777 5760 5757 5759 5764 5791 5847 5859 5878 5881 5871 5862 5875 5869 5862 5876 5874 5882 5888 5877 5864 5857 5848 5837 5830 5828 5821 5811 5805 5797 5794 5789 5785 5783 5778 5773 5768 5763 5759 5755 5753 5749 5745 5742 5738 5736 5733 5733
5765 5765 5762 5747 5759 5795 5811 5836 5867 5869 5866 5868 5868 5852 5877 5887 5872 5885 5888 5885 5872 5863 5855 5846 5837 5828 5822 5816 5811 5802 5795 5792 5788 5782 5779 5775 5769 5766 5762 5757 5754 5750 5745 5741 5739 5734 5734 5731 5729
5756 5755 5740 5746 5764 5794 5821 5838 5854 5852 5856 5854 5862 5849 5856 5882 5882 5886 5884 5878 5871 5865 5855 5842 5833 5826 5819 5815 5809 5801 5795 5788 5786 5782 5776 5773 5767 5761 5760 5755 5753 5748 5743 5741 5736 5731 5728 5727 5726
5736 5744 5725 5737 5766 5797 5820 5832 5841 5842 5843 5850 5852 5850 5857 5885 5871 5875 5880 5874 5873 5863 5857 5843 5832 5824 5818 5814 5809 5802 5796 5789 5784 5779 5773 5771 5766 5763 5758 5753 5750 5747 5741 5738 5733 5731 5728 5725 5724
5733 5732 5730 5749 5760 5777 5804 5838 5828 5829 5833 5835 5857 5840 5863 5865 5875 5876 5874 5874 5872 5864 5854 5841 5832 5823 5816 5811 5807 5803 5796 5790 5785 5778 5772 5769 5764 5762 5758 5753 5749 5746 5741 5736 5733 5731 5728 5724 5720
5737 5730 5726 5741 5749 5768 5805 5819 5830 5823 5823 5859 5865 5837 5840 5861 5875 5873 5874 5870 5867 5864 5853 5839 5831 5824 5817 5810 5804 5801 5795 5788 5785 5779 5774 5768 5763 5759 5758 5752 5748 5745 5741 5737 5733 5729 5726 5723 5719
5739 5717 5721 5738 5749 5770 5798 5795 5825 5837 5823 5837 5852 5855 5854 5872 5869 5858 5858 5863 5862 5857 5855 5846 5831 5824 5818 5813 5806 5798 5793 5788 5784 5779 5775 5769 5765 5760 5757 5751 5748 5743 5740 5735 5731 5727 5723 5719 5716
5711 5712 5733 5763 5773 5773 5789 5795 5805 5805 5811 5822 5839 5854 5858 5857 5849 5848 5843 5848 5854 5847 5847 5845 5837 5827 5821 5818 5812 5799 5794 5789 5786 5782 5777 5770 5765 5764 5760 5755 5747 5742 5737 5732 5727 5724 5721 5715 5713
5714 5717 5745 5758 5773 5780 5781 5789 5800 5792 5790 5817 5823 5834 5843 5846 5842 5848 5849 5853 5854 5854 5848 5840 5832 5828 5824 5818 5816 5805 5798 5792 5787 5784 5779 5773 5768 5765 5764 5758 5750 5743 5736 5732 5726 5721 5719 5715 5711
5704 5731 5737 5752 5761 5760 5764 5781 5779 5782 5790 5817 5830 5840 5836 5838 5838 5845 5851 5855 5856 5856 5834 5815 5804 5827 5824 5823 5816 5810 5804 5797 5789 5785 5779 5774 5769 5767 5763 5760 5754 5745 5739 5733 5728 5723 5720 5715 5713
5713 5729 5736 5745 5749 5746 5759 5760 5766 5772 5794 5811 5815 5828 5829 5830 5832 5839 5849 5845 5838 5833 5827 5818 5809 5824 5822 5819 5816 5812 5807 5803 5797 5792 5785 5778 5774 5769 5764 5760 5754 5749 5742 5735 5729 5727 5723 5717 5714
5710 5715 5725 5737 5742 5748 5741 5750 5756 5781 5792 5791 5798 5811 5813 5805 5811 5824 5827 5831 5834 5834 5833 5834 5823 5828 5824 5814 5810 5808 5806 5802 5799 5794 5791 5784 5779 5773 5766 5759 5754 5750 5746 5740 5732 5729 5725 5721 5717
5695 5690 5708 5727 5735 5735 5742 5728 5743 5777 5779 5776 5784 5798 5799 5798 5806 5809 5818 5819 5828 5831 5829 5826 5824 5820 5824 5814 5808 5803 5803 5801 5798 5795 5792 5788 5784 5775 5767 5760 5753 5751 5745 5739 5735 5730 5726 5721 5718
5672 5681 5684 5727 5717 5734 5718 5712 5753 5768 5762 5764 5771 5781 5795 5800 5805 5810 5813 5816 5820 5823 5822 5822 5822 5811 5814 5812 5806 5803 5800 5799 5800 5797 5793 5786 5784 5777 5767 5761 5755 5750 5743 5738 5733 5729 5722 5718 5713
5670 5658 5671 5697 5724 5718 5707 5709 5749 5758 5752 5751 5758 5765 5779 5791 5797 5805 5808 5813 5815 5814 5816 5810 5815 5809 5801 5805 5803 5801 5800 5798 5799 5799 5797 5790 5784 5776 5768 5760 5754 5747 5742 5735 5732 5727 5720 5712 5708
5652 5663 5678 5684 5711 5707 5703 5707 5742 5749 5744 5747 5753 5755 5762 5778 5789 5802 5802 5813 5813 5809 5807 5807 5808 5806 5800 5796 5797 5799 5797 5797 5798 5797 5795 5790 5783 5776 5767 5760 5752 5746 5740 5734 5729 5723 5717 5711 5705
5651 5651 5660 5681 5697 5681 5686 5705 5731 5743 5744 5742 5747 5750 5754 5763 5784 5797 5799 5806 5808 5803 5797 5796 5801 5801 5797 5788 5784 5787 5788 5791 5793 5795 5796 5790 5782 5775 5765 5756 5751 5743 5736 5731 5726 5719 5711 5705 5702
5629 5628 5639 5652 5662 5655 5669 5678 5713 5731 5739 5743 5742 5745 5750 5760 5773 5782 5789 5801 5800 5792 5789 5791 5799 5800 5797 5788 5787 5788 5789 5792 5796 5795 5793 5787 5778 5772 5762 5753 5747 5740 5733 5729 5724 5717 5706 5701 5699
5618 5616 5622 5622 5635 5637 5651 5652 5680 5713 5723 5728 5735 5746 5754 5754 5759 5769 5780 5787 5789 5783 5781 5782 5796 5795 5797 5793 5787 5786 5785 5789 5789 5787 5785 5780 5773 5765 5757 5749 5743 5738 5731 5726 5720 5713 5704 5693 5692
5596 5617 5617 5613 5610 5601 5633 5621 5654 5691 5703 5710 5721 5732 5745 5751 5757 5762 5767 5775 5781 5781 5785 5786 5788 5790 5793 5791 5783 5779 5776 5777 5783 5780 5779 5773 5765 5759 5752 5745 5738 5735 5730 5724 5719 5711 5702 5693 5683
5594 5607 5602 5601 5598 5597 5605 5604 5656 5667 5679 5693 5713 5724 5735 5742 5749 5754 5759 5766 5778 5783 5782 5781 5779 5781 5786 5788 5782 5779 5772 5779 5780 5776 5770 5765 5757 5752 5745 5740 5733 5728 5725 5720 5715 5708 5699 5692 5682
5579 5577 5585 5591 5592 5578 5601 5600 5629 5647 5666 5682 5703 5720 5727 5737 5744 5753 5763 5766 5769 5777 5780 5780 5778 5781 5785 5783 5779 5774 5771 5771 5770 5769 5760 5751 5746 5740 5737 5732 5727 5724 5719 5715 5711 5703 5695 5687 5680
5572 5564 5552 5563 5572 5578 5607 5604 5616 5654 5659 5674 5689 5708 5722 5731 5740 5749 5757 5763 5766 5770 5775 5777 5781 5781 5783 5778 5775 5769 5768 5767 5764 5762 5752 5742 5736 5730 5727 5725 5721 5718 5714 5710 5704 5696 5688 5681 5675
5559 5520 5525 5542 5559 5582 5607 5587 5604 5634 5644 5662 5679 5693 5711 5722 5737 5747 5757 5764 5770 5772 5775 5778 5778 5777 5776 5773 5770 5768 5764 5762 5760 5756 5747 5738 5731 5726 5725 5720 5719 5715 5710 5704 5698 5689 5683 5679 5673
5561 5560 5542 5537 5558 5549 5580 5595 5616 5632 5640 5650 5672 5689 5701 5710 5724 5741 5754 5760 5762 5768 5775 5775 5773 5770 5769 5769 5765 5763 5761 5758 5755 5750 5742 5735 5731 5726 5721 5718 5715 5710 5706 5699 5692 5685 5679 5676 5670
5555 5571 5557 5544 5524 5543 5568 5580 5595 5623 5638 5647 5663 5680 5697 5713 5721 5734 5746 5755 5762 5769 5771 5771 5769 5767 5765 5764 5761 5759 5757 5756 5753 5746 5737 5733 5729 5724 5718 5714 5708 5705 5702 5694 5686 5681 5677 5670 5665
5563 5560 5553 5533 5530 5535 5553 5578 5617 5584 5578 5586 5638 5679 5697 5697 5710 5725 5737 5748 5759 5764 5764 5763 5761 5761 5757 5757 5754 5752 5750 5749 5745 5738 5733 5728 5724 5718 5712 5708 5703 5699 5694 5688 5681 5677 5671 5664 5660
5568 5566 5543 5542 5537 5545 5555 5571 5575 5559 5557 5561 5583 5650 5676 5694 5700 5715 5726 5732 5750 5752 5755 5754 5754 5752 5749 5750 5746 5743 5742 5739 5734 5729 5724 5722 5716 5713 5708 5704 5697 5693 5690 5685 5677 5670 5668 5662 5656